contact:dominique.lefevre@mio.osupytheas.fr, maurice.libes@osupytheas.fr, didier.mallarino@osupytheas.fr
Project:EMSO http://www.emso-fr.org/EMSO-France
Depth: 2436.0 m
Title:EMSO Ligure Ouest : Data MII capteur MICROCAT
DateTime_Computer,Latitude,Longitude,Temperature,Conductivity,Pressure,DateTime_Instrument
DateTime_Computer,Latitude,Longitude,degC,S m-1,dbar,DateTime_Instrument
2021-11-28T00:02:58Z,42.805,6.029,13.2993,4.60017,2470.32,2021-11-28T02:04:25Z
2021-11-28T00:06:01Z,42.805,6.029,13.2995,4.60017,2470.357,2021-11-28T02:07:28Z
2021-11-28T00:09:04Z,42.805,6.029,13.2992,4.60017,2470.357,2021-11-28T02:10:31Z
2021-11-28T00:12:07Z,42.805,6.029,13.2991,4.60018,2470.343,2021-11-28T02:13:34Z
2021-11-28T00:15:11Z,42.805,6.029,13.2996,4.60016,2470.334,2021-11-28T02:16:38Z
2021-11-28T00:18:14Z,42.805,6.029,13.2993,4.60015,2470.32,2021-11-28T02:19:41Z
2021-11-28T00:21:17Z,42.805,6.029,13.2993,4.60016,2470.343,2021-11-28T02:22:44Z
2021-11-28T00:24:20Z,42.805,6.029,13.2997,4.60016,2470.32,2021-11-28T02:25:47Z
2021-11-28T00:27:23Z,42.805,6.029,13.2991,4.60016,2470.343,2021-11-28T02:28:50Z
2021-11-28T00:30:26Z,42.805,6.029,13.2991,4.60015,2470.306,2021-11-28T02:31:53Z
2021-11-28T00:33:29Z,42.805,6.029,13.2991,4.60016,2470.334,2021-11-28T02:34:56Z
2021-11-28T00:36:32Z,42.805,6.029,13.2995,4.60016,2470.343,2021-11-28T02:37:59Z
2021-11-28T00:39:36Z,42.805,6.029,13.2992,4.60016,2470.32,2021-11-28T02:41:03Z
2021-11-28T00:42:39Z,42.805,6.029,13.2991,4.60017,2470.404,2021-11-28T02:44:06Z
2021-11-28T00:45:42Z,42.805,6.029,13.2992,4.60017,2470.343,2021-11-28T02:47:09Z
2021-11-28T00:48:45Z,42.805,6.029,13.2994,4.60018,2470.32,2021-11-28T02:50:12Z
2021-11-28T00:51:48Z,42.805,6.029,13.2991,4.60016,2470.366,2021-11-28T02:53:15Z
2021-11-28T00:54:51Z,42.805,6.029,13.2991,4.60018,2470.38,2021-11-28T02:56:18Z
2021-11-28T00:57:54Z,42.805,6.029,13.2995,4.60016,2470.343,2021-11-28T02:59:21Z
2021-11-28T01:00:57Z,42.805,6.029,13.2992,4.60015,2470.343,2021-11-28T03:02:24Z
2021-11-28T01:04:00Z,42.805,6.029,13.2994,4.60016,2470.357,2021-11-28T03:05:28Z
2021-11-28T01:07:04Z,42.805,6.029,13.2992,4.60016,2470.38,2021-11-28T03:08:31Z
2021-11-28T01:10:07Z,42.805,6.029,13.2993,4.60016,2470.32,2021-11-28T03:11:34Z
2021-11-28T01:13:10Z,42.805,6.029,13.2996,4.60016,2470.32,2021-11-28T03:14:37Z
2021-11-28T01:16:13Z,42.805,6.029,13.2993,4.60016,2470.343,2021-11-28T03:17:40Z
2021-11-28T01:19:16Z,42.805,6.029,13.2991,4.60015,2470.357,2021-11-28T03:20:43Z
2021-11-28T01:22:19Z,42.805,6.029,13.2995,4.60015,2470.357,2021-11-28T03:23:46Z
2021-11-28T01:25:22Z,42.805,6.029,13.2993,4.60016,2470.32,2021-11-28T03:26:49Z
2021-11-28T01:28:26Z,42.805,6.029,13.2993,4.60015,2470.32,2021-11-28T03:29:53Z
2021-11-28T01:31:29Z,42.805,6.029,13.2994,4.60016,2470.334,2021-11-28T03:32:56Z
2021-11-28T01:34:32Z,42.805,6.029,13.2996,4.60019,2470.366,2021-11-28T03:35:59Z
2021-11-28T01:37:35Z,42.805,6.029,13.2998,4.60017,2470.32,2021-11-28T03:39:02Z
2021-11-28T01:40:38Z,42.805,6.029,13.2995,4.60016,2470.343,2021-11-28T03:42:05Z
2021-11-28T01:43:41Z,42.805,6.029,13.2990,4.60016,2470.38,2021-11-28T03:45:08Z
2021-11-28T01:46:44Z,42.805,6.029,13.2993,4.60014,2470.357,2021-11-28T03:48:11Z
2021-11-28T01:49:47Z,42.805,6.029,13.2997,4.60016,2470.343,2021-11-28T03:51:14Z
2021-11-28T01:52:50Z,42.805,6.029,13.2993,4.60014,2470.334,2021-11-28T03:54:18Z
2021-11-28T01:55:54Z,42.805,6.029,13.2993,4.60014,2470.31,2021-11-28T03:57:21Z
2021-11-28T01:58:57Z,42.805,6.029,13.2995,4.60015,2470.32,2021-11-28T04:00:24Z
2021-11-28T02:02:00Z,42.805,6.029,13.2991,4.60016,2470.32,2021-11-28T04:03:27Z
2021-11-28T02:05:03Z,42.805,6.029,13.2993,4.60015,2470.366,2021-11-28T04:06:30Z
2021-11-28T02:08:06Z,42.805,6.029,13.2995,4.60016,2470.366,2021-11-28T04:09:33Z
2021-11-28T02:11:09Z,42.805,6.029,13.2998,4.60016,2470.334,2021-11-28T04:12:36Z
2021-11-28T02:14:12Z,42.805,6.029,13.2992,4.60016,2470.343,2021-11-28T04:15:39Z
2021-11-28T02:17:15Z,42.805,6.029,13.2997,4.60016,2470.357,2021-11-28T04:18:42Z
2021-11-28T02:20:19Z,42.805,6.029,13.2996,4.60015,2470.32,2021-11-28T04:21:46Z
2021-11-28T02:23:22Z,42.805,6.029,13.2990,4.60015,2470.297,2021-11-28T04:24:49Z
2021-11-28T02:26:25Z,42.805,6.029,13.2992,4.60016,2470.343,2021-11-28T04:27:52Z
2021-11-28T02:29:28Z,42.805,6.029,13.2993,4.60016,2470.297,2021-11-28T04:30:55Z
2021-11-28T02:32:31Z,42.805,6.029,13.2994,4.60014,2470.32,2021-11-28T04:33:58Z
2021-11-28T02:35:34Z,42.805,6.029,13.2991,4.60015,2470.343,2021-11-28T04:37:01Z
2021-11-28T02:38:37Z,42.805,6.029,13.2993,4.60014,2470.343,2021-11-28T04:40:04Z
2021-11-28T02:41:40Z,42.805,6.029,13.2994,4.60014,2470.32,2021-11-28T04:43:07Z
2021-11-28T02:44:44Z,42.805,6.029,13.2991,4.60014,2470.343,2021-11-28T04:46:11Z
2021-11-28T02:47:47Z,42.805,6.029,13.2994,4.60013,2470.343,2021-11-28T04:49:14Z
2021-11-28T02:50:50Z,42.805,6.029,13.2997,4.60014,2470.334,2021-11-28T04:52:17Z
2021-11-28T02:53:53Z,42.805,6.029,13.2993,4.60015,2470.32,2021-11-28T04:55:20Z
2021-11-28T02:56:56Z,42.805,6.029,13.2991,4.60015,2470.32,2021-11-28T04:58:23Z
2021-11-28T02:59:59Z,42.805,6.029,13.2991,4.60015,2470.357,2021-11-28T05:01:26Z
2021-11-28T03:03:02Z,42.805,6.029,13.2997,4.60015,2470.343,2021-11-28T05:04:29Z
2021-11-28T03:06:05Z,42.805,6.029,13.2995,4.60016,2470.343,2021-11-28T05:07:32Z
2021-11-28T03:09:09Z,42.805,6.029,13.2994,4.60014,2470.343,2021-11-28T05:10:36Z
2021-11-28T03:12:12Z,42.805,6.029,13.2995,4.60015,2470.32,2021-11-28T05:13:39Z
2021-11-28T03:15:15Z,42.805,6.029,13.2991,4.60014,2470.343,2021-11-28T05:16:42Z
2021-11-28T03:18:18Z,42.805,6.029,13.2995,4.60016,2470.334,2021-11-28T05:19:45Z
2021-11-28T03:21:21Z,42.805,6.029,13.2995,4.60016,2470.32,2021-11-28T05:22:48Z
2021-11-28T03:24:24Z,42.805,6.029,13.2997,4.60016,2470.32,2021-11-28T05:25:51Z
2021-11-28T03:27:27Z,42.805,6.029,13.2995,4.60014,2470.32,2021-11-28T05:28:54Z
2021-11-28T03:30:30Z,42.805,6.029,13.2993,4.60016,2470.334,2021-11-28T05:31:57Z
2021-11-28T03:33:34Z,42.805,6.029,13.2996,4.60016,2470.31,2021-11-28T05:35:01Z
2021-11-28T03:36:37Z,42.805,6.029,13.2993,4.60014,2470.297,2021-11-28T05:38:04Z
2021-11-28T03:39:40Z,42.805,6.029,13.2993,4.60015,2470.334,2021-11-28T05:41:07Z
2021-11-28T03:42:43Z,42.805,6.029,13.2994,4.60015,2470.32,2021-11-28T05:44:10Z
2021-11-28T03:45:46Z,42.805,6.029,13.2993,4.60014,2470.357,2021-11-28T05:47:13Z
2021-11-28T03:48:49Z,42.805,6.029,13.2994,4.60014,2470.32,2021-11-28T05:50:16Z
2021-11-28T03:51:52Z,42.805,6.029,13.2991,4.60016,2470.334,2021-11-28T05:53:19Z
2021-11-28T03:54:55Z,42.805,6.029,13.2993,4.60014,2470.297,2021-11-28T05:56:22Z
2021-11-28T03:57:59Z,42.805,6.029,13.2996,4.60014,2470.334,2021-11-28T05:59:26Z
2021-11-28T04:01:02Z,42.805,6.029,13.2998,4.60015,2470.297,2021-11-28T06:02:29Z
2021-11-28T04:04:05Z,42.805,6.029,13.2993,4.60015,2470.32,2021-11-28T06:05:32Z
2021-11-28T04:07:08Z,42.805,6.029,13.2992,4.60014,2470.32,2021-11-28T06:08:35Z
2021-11-28T04:10:11Z,42.805,6.029,13.2997,4.60014,2470.297,2021-11-28T06:11:38Z
2021-11-28T04:13:14Z,42.805,6.029,13.2993,4.60016,2470.32,2021-11-28T06:14:41Z
2021-11-28T04:16:17Z,42.805,6.029,13.2993,4.60015,2470.343,2021-11-28T06:17:44Z
2021-11-28T04:19:20Z,42.805,6.029,13.2991,4.60015,2470.343,2021-11-28T06:20:47Z
2021-11-28T04:22:24Z,42.805,6.029,13.2994,4.60015,2470.32,2021-11-28T06:23:51Z
2021-11-28T04:25:27Z,42.805,6.029,13.2992,4.60016,2470.334,2021-11-28T06:26:54Z
2021-11-28T04:28:30Z,42.805,6.029,13.2996,4.60015,2470.297,2021-11-28T06:29:57Z
2021-11-28T04:31:33Z,42.805,6.029,13.2995,4.60015,2470.297,2021-11-28T06:33:00Z
2021-11-28T04:34:36Z,42.805,6.029,13.2993,4.60014,2470.32,2021-11-28T06:36:03Z
2021-11-28T04:37:39Z,42.805,6.029,13.2996,4.60014,2470.32,2021-11-28T06:39:06Z
2021-11-28T04:40:42Z,42.805,6.029,13.2997,4.60015,2470.357,2021-11-28T06:42:09Z
2021-11-28T04:43:45Z,42.805,6.029,13.2996,4.60014,2470.32,2021-11-28T06:45:12Z
2021-11-28T04:46:48Z,42.805,6.029,13.2997,4.60014,2470.297,2021-11-28T06:48:16Z
2021-11-28T04:49:52Z,42.805,6.029,13.2993,4.60015,2470.32,2021-11-28T06:51:19Z
2021-11-28T04:52:55Z,42.805,6.029,13.2992,4.60016,2470.343,2021-11-28T06:54:22Z
2021-11-28T04:55:58Z,42.805,6.029,13.2996,4.60015,2470.334,2021-11-28T06:57:25Z
2021-11-28T04:59:01Z,42.805,6.029,13.2992,4.60015,2470.334,2021-11-28T07:00:28Z
2021-11-28T05:02:04Z,42.805,6.029,13.2996,4.60015,2470.334,2021-11-28T07:03:31Z
2021-11-28T05:05:07Z,42.805,6.029,13.2993,4.60016,2470.334,2021-11-28T07:06:34Z
2021-11-28T05:08:10Z,42.805,6.029,13.2995,4.60016,2470.297,2021-11-28T07:09:37Z
2021-11-28T05:11:13Z,42.805,6.029,13.2994,4.60016,2470.32,2021-11-28T07:12:41Z
2021-11-28T05:14:17Z,42.805,6.029,13.2993,4.60015,2470.334,2021-11-28T07:15:44Z
2021-11-28T05:17:20Z,42.805,6.029,13.2996,4.60014,2470.297,2021-11-28T07:18:47Z
2021-11-28T05:20:23Z,42.805,6.029,13.2991,4.60015,2470.31,2021-11-28T07:21:50Z
2021-11-28T05:23:26Z,42.805,6.029,13.2991,4.60014,2470.287,2021-11-28T07:24:53Z
2021-11-28T05:26:29Z,42.805,6.029,13.2993,4.60014,2470.334,2021-11-28T07:27:56Z
2021-11-28T05:29:32Z,42.805,6.029,13.2993,4.60014,2470.297,2021-11-28T07:30:59Z
2021-11-28T05:32:35Z,42.805,6.029,13.2996,4.60016,2470.32,2021-11-28T07:34:02Z
2021-11-28T05:35:38Z,42.805,6.029,13.2996,4.60016,2470.32,2021-11-28T07:37:05Z
2021-11-28T05:38:42Z,42.805,6.029,13.2992,4.60015,2470.297,2021-11-28T07:40:09Z
2021-11-28T05:41:45Z,42.805,6.029,13.2997,4.60016,2470.31,2021-11-28T07:43:12Z
2021-11-28T05:44:48Z,42.805,6.029,13.2992,4.60017,2470.287,2021-11-28T07:46:15Z
2021-11-28T05:47:51Z,42.805,6.029,13.2993,4.60016,2470.297,2021-11-28T07:49:18Z
2021-11-28T05:50:54Z,42.805,6.029,13.2993,4.60016,2470.31,2021-11-28T07:52:21Z
2021-11-28T05:53:57Z,42.805,6.029,13.2996,4.60014,2470.297,2021-11-28T07:55:24Z
2021-11-28T05:57:00Z,42.805,6.029,13.2993,4.60015,2470.31,2021-11-28T07:58:27Z
2021-11-28T06:00:03Z,42.805,6.029,13.2994,4.60014,2470.273,2021-11-28T08:01:30Z
2021-11-28T06:03:07Z,42.805,6.029,13.2992,4.60016,2470.287,2021-11-28T08:04:34Z
2021-11-28T06:06:10Z,42.805,6.029,13.2993,4.60016,2470.31,2021-11-28T08:07:37Z
2021-11-28T06:09:13Z,42.805,6.029,13.2993,4.60014,2470.273,2021-11-28T08:10:40Z
2021-11-28T06:12:16Z,42.805,6.029,13.2994,4.60016,2470.25,2021-11-28T08:13:43Z
2021-11-28T06:15:19Z,42.805,6.029,13.2993,4.60014,2470.31,2021-11-28T08:16:46Z
2021-11-28T06:18:22Z,42.805,6.029,13.2997,4.60014,2470.32,2021-11-28T08:19:49Z
2021-11-28T06:21:25Z,42.805,6.029,13.2993,4.60015,2470.273,2021-11-28T08:22:52Z
2021-11-28T06:24:28Z,42.805,6.029,13.2993,4.60015,2470.273,2021-11-28T08:25:55Z
2021-11-28T06:27:31Z,42.805,6.029,13.2991,4.60015,2470.287,2021-11-28T08:28:59Z
2021-11-28T06:30:35Z,42.805,6.029,13.2994,4.60015,2470.287,2021-11-28T08:32:02Z
2021-11-28T06:33:38Z,42.805,6.029,13.2993,4.60015,2470.273,2021-11-28T08:35:05Z
2021-11-28T06:36:41Z,42.805,6.029,13.2996,4.60014,2470.287,2021-11-28T08:38:08Z
2021-11-28T06:39:44Z,42.805,6.029,13.2995,4.60015,2470.273,2021-11-28T08:41:11Z
2021-11-28T06:42:47Z,42.805,6.029,13.2996,4.60014,2470.297,2021-11-28T08:44:14Z
2021-11-28T06:45:50Z,42.805,6.029,13.2992,4.60015,2470.334,2021-11-28T08:47:17Z
2021-11-28T06:48:53Z,42.805,6.029,13.2994,4.60016,2470.25,2021-11-28T08:50:20Z
2021-11-28T06:51:56Z,42.805,6.029,13.2995,4.60013,2470.297,2021-11-28T08:53:24Z
2021-11-28T06:55:00Z,42.805,6.029,13.2999,4.60016,2470.273,2021-11-28T08:56:27Z
2021-11-28T06:58:03Z,42.805,6.029,13.2992,4.60014,2470.297,2021-11-28T08:59:30Z
2021-11-28T07:01:06Z,42.805,6.029,13.2994,4.60014,2470.273,2021-11-28T09:02:33Z
2021-11-28T07:04:09Z,42.805,6.029,13.2996,4.60014,2470.273,2021-11-28T09:05:36Z
2021-11-28T07:07:12Z,42.805,6.029,13.2995,4.60015,2470.31,2021-11-28T09:08:39Z
2021-11-28T07:10:15Z,42.805,6.029,13.2993,4.60015,2470.297,2021-11-28T09:11:42Z
2021-11-28T07:13:18Z,42.805,6.029,13.2992,4.60014,2470.273,2021-11-28T09:14:45Z
2021-11-28T07:16:21Z,42.805,6.029,13.2996,4.60014,2470.297,2021-11-28T09:17:48Z
2021-11-28T07:19:25Z,42.805,6.029,13.2998,4.60016,2470.297,2021-11-28T09:20:52Z
2021-11-28T07:22:28Z,42.805,6.029,13.2994,4.60015,2470.297,2021-11-28T09:23:55Z
2021-11-28T07:25:31Z,42.805,6.029,13.2996,4.60014,2470.283,2021-11-28T09:26:58Z
2021-11-28T07:28:34Z,42.805,6.029,13.2997,4.60016,2470.32,2021-11-28T09:30:01Z
2021-11-28T07:31:37Z,42.805,6.029,13.2996,4.60014,2470.273,2021-11-28T09:33:04Z
2021-11-28T07:34:40Z,42.805,6.029,13.2993,4.60014,2470.31,2021-11-28T09:36:07Z
2021-11-28T07:37:43Z,42.805,6.029,13.2996,4.60015,2470.25,2021-11-28T09:39:10Z
2021-11-28T07:40:46Z,42.805,6.029,13.2995,4.60014,2470.297,2021-11-28T09:42:13Z
2021-11-28T07:43:50Z,42.805,6.029,13.2992,4.60014,2470.287,2021-11-28T09:45:17Z
2021-11-28T07:46:53Z,42.805,6.029,13.2992,4.60014,2470.25,2021-11-28T09:48:20Z
2021-11-28T07:49:56Z,42.805,6.029,13.2995,4.60015,2470.297,2021-11-28T09:51:23Z
2021-11-28T07:52:59Z,42.805,6.029,13.2993,4.60014,2470.273,2021-11-28T09:54:26Z
2021-11-28T07:56:02Z,42.805,6.029,13.2996,4.60014,2470.297,2021-11-28T09:57:29Z
2021-11-28T07:59:05Z,42.805,6.029,13.2991,4.60014,2470.264,2021-11-28T10:00:32Z
2021-11-28T08:02:08Z,42.805,6.029,13.2995,4.60015,2470.297,2021-11-28T10:03:35Z
2021-11-28T08:05:11Z,42.805,6.029,13.2997,4.60014,2470.297,2021-11-28T10:06:38Z
2021-11-28T08:08:15Z,42.805,6.029,13.2996,4.60014,2470.273,2021-11-28T10:09:42Z
2021-11-28T08:11:18Z,42.805,6.029,13.2991,4.60013,2470.31,2021-11-28T10:12:45Z
2021-11-28T08:14:21Z,42.805,6.029,13.2991,4.60015,2470.273,2021-11-28T10:15:48Z
2021-11-28T08:17:24Z,42.805,6.029,13.2993,4.60015,2470.297,2021-11-28T10:18:51Z
2021-11-28T08:20:27Z,42.805,6.029,13.2994,4.60015,2470.287,2021-11-28T10:21:54Z
2021-11-28T08:23:30Z,42.805,6.029,13.2990,4.60014,2470.31,2021-11-28T10:24:57Z
2021-11-28T08:26:33Z,42.805,6.029,13.2994,4.60016,2470.297,2021-11-28T10:28:00Z
2021-11-28T08:29:36Z,42.805,6.029,13.2992,4.60013,2470.31,2021-11-28T10:31:04Z
2021-11-28T08:32:40Z,42.805,6.029,13.2993,4.60015,2470.297,2021-11-28T10:34:07Z
2021-11-28T08:35:43Z,42.805,6.029,13.2997,4.60014,2470.31,2021-11-28T10:37:10Z
2021-11-28T08:38:46Z,42.805,6.029,13.2995,4.60016,2470.334,2021-11-28T10:40:13Z
2021-11-28T08:41:49Z,42.805,6.029,13.2993,4.60015,2470.297,2021-11-28T10:43:16Z
2021-11-28T08:44:52Z,42.805,6.029,13.2993,4.60014,2470.273,2021-11-28T10:46:19Z
2021-11-28T08:47:55Z,42.805,6.029,13.2993,4.60015,2470.297,2021-11-28T10:49:22Z
2021-11-28T08:50:58Z,42.805,6.029,13.2991,4.60014,2470.334,2021-11-28T10:52:25Z
2021-11-28T08:54:01Z,42.805,6.029,13.2992,4.60013,2470.32,2021-11-28T10:55:29Z
2021-11-28T08:57:05Z,42.805,6.029,13.2992,4.60013,2470.297,2021-11-28T10:58:32Z
2021-11-28T09:00:08Z,42.805,6.029,13.2994,4.60014,2470.297,2021-11-28T11:01:35Z
2021-11-28T09:03:11Z,42.805,6.029,13.2995,4.60014,2470.31,2021-11-28T11:04:38Z
2021-11-28T09:06:14Z,42.805,6.029,13.2998,4.60014,2470.32,2021-11-28T11:07:41Z
2021-11-28T09:09:17Z,42.805,6.029,13.2993,4.60016,2470.297,2021-11-28T11:10:44Z
2021-11-28T09:12:20Z,42.805,6.029,13.2993,4.60014,2470.297,2021-11-28T11:13:47Z
2021-11-28T09:15:23Z,42.805,6.029,13.2995,4.60014,2470.31,2021-11-28T11:16:51Z
2021-11-28T09:18:27Z,42.805,6.029,13.2996,4.60014,2470.32,2021-11-28T11:19:54Z
2021-11-28T09:21:30Z,42.805,6.029,13.2994,4.60012,2470.32,2021-11-28T11:22:57Z
2021-11-28T09:24:33Z,42.805,6.029,13.2998,4.60015,2470.287,2021-11-28T11:26:00Z
2021-11-28T09:27:36Z,42.805,6.029,13.2993,4.60014,2470.343,2021-11-28T11:29:03Z
2021-11-28T09:30:39Z,42.805,6.029,13.2992,4.60014,2470.343,2021-11-28T11:32:06Z
2021-11-28T09:33:42Z,42.805,6.029,13.2996,4.60013,2470.334,2021-11-28T11:35:09Z
2021-11-28T09:36:45Z,42.805,6.029,13.2994,4.60013,2470.297,2021-11-28T11:38:12Z
2021-11-28T09:39:48Z,42.805,6.029,13.2990,4.60014,2470.343,2021-11-28T11:41:15Z
2021-11-28T09:42:52Z,42.805,6.029,13.2991,4.60013,2470.32,2021-11-28T11:44:19Z
2021-11-28T09:45:55Z,42.805,6.029,13.2996,4.60011,2470.31,2021-11-28T11:47:22Z
2021-11-28T09:48:58Z,42.805,6.029,13.2990,4.60013,2470.334,2021-11-28T11:50:25Z
2021-11-28T09:52:01Z,42.805,6.029,13.2990,4.60013,2470.32,2021-11-28T11:53:28Z
2021-11-28T09:55:04Z,42.805,6.029,13.2993,4.60013,2470.32,2021-11-28T11:56:31Z
2021-11-28T09:58:07Z,42.805,6.029,13.2998,4.60014,2470.334,2021-11-28T11:59:34Z
2021-11-28T10:01:10Z,42.805,6.029,13.2996,4.60013,2470.343,2021-11-28T12:02:37Z
2021-11-28T10:04:13Z,42.805,6.029,13.2991,4.60013,2470.357,2021-11-28T12:05:41Z
2021-11-28T10:07:17Z,42.805,6.029,13.2995,4.60014,2470.38,2021-11-28T12:08:44Z
2021-11-28T10:10:20Z,42.805,6.029,13.2994,4.60014,2470.334,2021-11-28T12:11:47Z
2021-11-28T10:13:23Z,42.805,6.029,13.2996,4.60014,2470.297,2021-11-28T12:14:50Z
2021-11-28T10:16:26Z,42.805,6.029,13.2995,4.60013,2470.32,2021-11-28T12:17:53Z
2021-11-28T10:19:29Z,42.805,6.029,13.2991,4.60013,2470.32,2021-11-28T12:20:56Z
2021-11-28T10:25:35Z,42.805,6.029,13.2993,4.60013,2470.366,2021-11-28T12:27:02Z
2021-11-28T10:28:38Z,42.805,6.029,13.2993,4.60014,2470.32,2021-11-28T12:30:05Z
2021-11-28T10:31:41Z,42.805,6.029,13.2993,4.60013,2470.343,2021-11-28T12:33:08Z
2021-11-28T10:34:45Z,42.805,6.029,13.2993,4.60014,2470.343,2021-11-28T12:36:12Z
2021-11-28T10:37:48Z,42.805,6.029,13.2996,4.60014,2470.366,2021-11-28T12:39:15Z
2021-11-28T10:40:51Z,42.805,6.029,13.2991,4.60013,2470.39,2021-11-28T12:42:18Z
2021-11-28T10:43:54Z,42.805,6.029,13.2993,4.60013,2470.343,2021-11-28T12:45:21Z
2021-11-28T10:46:57Z,42.805,6.029,13.2993,4.60014,2470.366,2021-11-28T12:48:24Z
2021-11-28T10:50:00Z,42.805,6.029,13.2997,4.60013,2470.366,2021-11-28T12:51:27Z
2021-11-28T10:53:03Z,42.805,6.029,13.2993,4.60014,2470.366,2021-11-28T12:54:30Z
2021-11-28T10:56:06Z,42.805,6.029,13.2995,4.60014,2470.39,2021-11-28T12:57:34Z
2021-11-28T10:59:10Z,42.805,6.029,13.2994,4.60014,2470.39,2021-11-28T13:00:37Z
2021-11-28T11:02:13Z,42.805,6.029,13.2993,4.60014,2470.38,2021-11-28T13:03:40Z
2021-11-28T11:05:16Z,42.805,6.029,13.2993,4.60013,2470.404,2021-11-28T13:06:43Z
2021-11-28T11:08:19Z,42.805,6.029,13.2991,4.60014,2470.343,2021-11-28T13:09:46Z
2021-11-28T11:11:22Z,42.805,6.029,13.2994,4.60013,2470.366,2021-11-28T13:12:49Z
2021-11-28T11:14:25Z,42.805,6.029,13.2992,4.60015,2470.39,2021-11-28T13:15:52Z
2021-11-28T11:17:28Z,42.805,6.029,13.2995,4.60014,2470.39,2021-11-28T13:18:55Z
2021-11-28T11:20:32Z,42.805,6.029,13.2993,4.60016,2470.366,2021-11-28T13:21:59Z
2021-11-28T11:23:35Z,42.805,6.029,13.2992,4.60014,2470.39,2021-11-28T13:25:02Z
2021-11-28T11:26:38Z,42.805,6.029,13.2996,4.60016,2470.366,2021-11-28T13:28:05Z
2021-11-28T11:29:41Z,42.805,6.029,13.2990,4.60014,2470.39,2021-11-28T13:31:08Z
2021-11-28T11:32:44Z,42.805,6.029,13.2993,4.60015,2470.38,2021-11-28T13:34:11Z
2021-11-28T11:35:47Z,42.805,6.029,13.2993,4.60014,2470.366,2021-11-28T13:37:14Z
2021-11-28T11:38:50Z,42.805,6.029,13.2994,4.60015,2470.427,2021-11-28T13:40:17Z
2021-11-28T11:41:53Z,42.805,6.029,13.2992,4.60014,2470.39,2021-11-28T13:43:20Z
2021-11-28T11:44:57Z,42.805,6.029,13.2996,4.60014,2470.413,2021-11-28T13:46:24Z
2021-11-28T11:48:00Z,42.805,6.029,13.2994,4.60016,2470.427,2021-11-28T13:49:27Z
2021-11-28T11:51:03Z,42.805,6.029,13.2992,4.60014,2470.413,2021-11-28T13:52:30Z
2021-11-28T11:54:06Z,42.805,6.029,13.2994,4.60015,2470.39,2021-11-28T13:55:33Z
2021-11-28T11:57:09Z,42.805,6.029,13.2995,4.60014,2470.427,2021-11-28T13:58:36Z
2021-11-28T12:00:12Z,42.805,6.029,13.2991,4.60013,2470.413,2021-11-28T14:01:39Z
2021-11-28T12:03:15Z,42.805,6.029,13.2993,4.60014,2470.39,2021-11-28T14:04:42Z
2021-11-28T12:06:18Z,42.805,6.029,13.2995,4.60013,2470.427,2021-11-28T14:07:46Z
2021-11-28T12:09:22Z,42.805,6.029,13.2993,4.60014,2470.437,2021-11-28T14:10:49Z
2021-11-28T12:12:25Z,42.805,6.029,13.3000,4.60014,2470.413,2021-11-28T14:13:52Z
2021-11-28T12:15:28Z,42.805,6.029,13.2996,4.60014,2470.413,2021-11-28T14:16:55Z
2021-11-28T12:18:31Z,42.805,6.029,13.2992,4.60014,2470.413,2021-11-28T14:19:58Z
2021-11-28T12:21:34Z,42.805,6.029,13.2996,4.60013,2470.437,2021-11-28T14:23:01Z
2021-11-28T12:24:37Z,42.805,6.029,13.2994,4.60013,2470.39,2021-11-28T14:26:04Z
2021-11-28T12:27:40Z,42.805,6.029,13.2993,4.60015,2470.437,2021-11-28T14:29:07Z
2021-11-28T12:30:43Z,42.805,6.029,13.2993,4.60014,2470.366,2021-11-28T14:32:11Z
2021-11-28T12:33:47Z,42.805,6.029,13.2991,4.60016,2470.413,2021-11-28T14:35:14Z
2021-11-28T12:36:50Z,42.805,6.029,13.2993,4.60014,2470.437,2021-11-28T14:38:17Z
2021-11-28T12:39:53Z,42.805,6.029,13.2998,4.60014,2470.427,2021-11-28T14:41:20Z
2021-11-28T12:42:56Z,42.805,6.029,13.2993,4.60014,2470.404,2021-11-28T14:44:23Z
2021-11-28T12:45:59Z,42.805,6.029,13.2995,4.60014,2470.427,2021-11-28T14:47:26Z
2021-11-28T12:49:02Z,42.805,6.029,13.2996,4.60014,2470.45,2021-11-28T14:50:29Z
2021-11-28T12:52:05Z,42.805,6.029,13.2993,4.60016,2470.427,2021-11-28T14:53:32Z
2021-11-28T12:55:09Z,42.805,6.029,13.2991,4.60014,2470.46,2021-11-28T14:56:36Z
2021-11-28T12:58:12Z,42.805,6.029,13.2996,4.60015,2470.413,2021-11-28T14:59:39Z
2021-11-28T13:01:15Z,42.805,6.029,13.2995,4.60015,2470.39,2021-11-28T15:02:42Z
2021-11-28T13:04:18Z,42.805,6.029,13.2991,4.60014,2470.404,2021-11-28T15:05:45Z
2021-11-28T13:07:21Z,42.805,6.029,13.2994,4.60014,2470.399,2021-11-28T15:08:48Z
2021-11-28T13:10:24Z,42.805,6.029,13.2996,4.60015,2470.39,2021-11-28T15:11:51Z
2021-11-28T13:13:27Z,42.805,6.029,13.2991,4.60014,2470.413,2021-11-28T15:14:54Z
2021-11-28T13:16:30Z,42.805,6.029,13.2995,4.60015,2470.413,2021-11-28T15:17:57Z
2021-11-28T13:19:34Z,42.805,6.029,13.2992,4.60016,2470.413,2021-11-28T15:21:01Z
2021-11-28T13:22:37Z,42.805,6.029,13.2994,4.60013,2470.413,2021-11-28T15:24:04Z
2021-11-28T13:25:40Z,42.805,6.029,13.2991,4.60012,2470.413,2021-11-28T15:27:07Z
2021-11-28T13:28:43Z,42.805,6.029,13.2990,4.60014,2470.413,2021-11-28T15:30:10Z
2021-11-28T13:31:46Z,42.805,6.029,13.2992,4.60014,2470.39,2021-11-28T15:33:13Z
2021-11-28T13:34:49Z,42.805,6.029,13.2993,4.60016,2470.45,2021-11-28T15:36:16Z
2021-11-28T13:37:52Z,42.805,6.029,13.2997,4.60016,2470.413,2021-11-28T15:39:19Z
2021-11-28T13:40:55Z,42.805,6.029,13.2994,4.60016,2470.45,2021-11-28T15:42:23Z
2021-11-28T13:43:59Z,42.805,6.029,13.2993,4.60015,2470.413,2021-11-28T15:45:26Z
2021-11-28T13:47:02Z,42.805,6.029,13.2993,4.60015,2470.427,2021-11-28T15:48:29Z
2021-11-28T13:50:05Z,42.805,6.029,13.2992,4.60014,2470.39,2021-11-28T15:51:32Z
2021-11-28T13:53:08Z,42.805,6.029,13.2996,4.60016,2470.413,2021-11-28T15:54:35Z
2021-11-28T13:56:11Z,42.805,6.029,13.2996,4.60014,2470.437,2021-11-28T15:57:38Z
2021-11-28T13:59:14Z,42.805,6.029,13.2995,4.60015,2470.39,2021-11-28T16:00:41Z
2021-11-28T14:02:17Z,42.805,6.029,13.2992,4.60014,2470.45,2021-11-28T16:03:44Z
2021-11-28T14:05:20Z,42.805,6.029,13.2993,4.60015,2470.413,2021-11-28T16:06:48Z
2021-11-28T14:08:24Z,42.805,6.029,13.2996,4.60015,2470.46,2021-11-28T16:09:51Z
2021-11-28T14:11:27Z,42.805,6.029,13.2995,4.60014,2470.45,2021-11-28T16:12:54Z
2021-11-28T14:14:30Z,42.805,6.029,13.2994,4.60015,2470.404,2021-11-28T16:15:57Z
2021-11-28T14:17:33Z,42.805,6.029,13.2993,4.60015,2470.413,2021-11-28T16:19:00Z
2021-11-28T14:20:36Z,42.805,6.029,13.2994,4.60016,2470.45,2021-11-28T16:22:03Z
2021-11-28T14:23:39Z,42.805,6.029,13.2996,4.60015,2470.413,2021-11-28T16:25:06Z
2021-11-28T14:26:42Z,42.805,6.029,13.2995,4.60014,2470.413,2021-11-28T16:28:09Z
2021-11-28T14:29:45Z,42.805,6.029,13.2993,4.60013,2470.413,2021-11-28T16:31:13Z
2021-11-28T14:32:49Z,42.805,6.029,13.2995,4.60014,2470.413,2021-11-28T16:34:16Z
2021-11-28T14:35:52Z,42.805,6.029,13.2993,4.60014,2470.404,2021-11-28T16:37:19Z
2021-11-28T14:38:55Z,42.805,6.029,13.2995,4.60014,2470.413,2021-11-28T16:40:22Z
2021-11-28T14:41:58Z,42.805,6.029,13.2995,4.60014,2470.427,2021-11-28T16:43:25Z
2021-11-28T14:45:01Z,42.805,6.029,13.2992,4.60016,2470.413,2021-11-28T16:46:28Z
2021-11-28T14:48:04Z,42.805,6.029,13.2993,4.60015,2470.39,2021-11-28T16:49:31Z
2021-11-28T14:51:07Z,42.805,6.029,13.2995,4.60014,2470.427,2021-11-28T16:52:34Z
2021-11-28T14:54:10Z,42.805,6.029,13.2993,4.60014,2470.39,2021-11-28T16:55:38Z
2021-11-28T14:57:14Z,42.805,6.029,13.2993,4.60014,2470.45,2021-11-28T16:58:41Z
2021-11-28T15:00:17Z,42.805,6.029,13.2991,4.60013,2470.404,2021-11-28T17:01:44Z
2021-11-28T15:03:20Z,42.805,6.029,13.2993,4.60013,2470.413,2021-11-28T17:04:47Z
2021-11-28T15:06:23Z,42.805,6.029,13.2993,4.60014,2470.427,2021-11-28T17:07:50Z